Estación municipal de Roda de Ter (Osona, Plana de Vic)

Consulta los datos en tiempo real de la estación municipal de Roda de Ter





Hora UTC 08:00
Temperatura 11.0 ºC
Humedad 100.0 %
Pluja 0.2 mm
Velocidad viento 2.7 km/h
Dirección viento NE

Webcam

Datos diarios 2026-05-05



Hora UTC (invierno +1h; verano +2h)
Temperatura (ºC) Humedad (%) Velocidad viento (km/h) Precipitación (mm)
Hora UTC Aire Humedad Vel. Dir. Vel. Max Dir. Intent. máx 5 min.
00:05 8.5 100.0 0.7 SE 0.7 SE 0.0
00:10 8.8 100.0 0.0 NNE 0.0 SE 0.0
00:15 8.9 100.0 0.0 NNE 0.0 SE 0.0
00:20 9.2 100.0 0.0 NNE 0.0 ESE 0.0
00:25 9.3 100.0 0.0 ESE 1.1 ESE 0.0
00:30 9.2 100.0 0.0 ESE 1.1 ESE 0.0
00:35 9.3 100.0 0.1 ESE 2.1 ESE 0.0
00:40 9.3 100.0 2.9 ESE 4.2 ESE 0.0
00:45 9.4 100.0 1.9 ESE 4.2 ESE 0.0
00:50 9.5 100.0 0.0 NNE 0.0 ESE 0.0
00:55 9.3 100.0 0.0 E 1.1 E 0.1
01:00 9.2 100.0 0.3 E 2.1 E 0.0
01:05 9.1 100.0 0.0 NNE 0.0 E 0.0
01:10 9.0 100.0 0.0 NNE 0.0 E 0.0
01:15 9.1 100.0 1.4 E 3.5 E 0.0
01:20 9.2 100.0 0.4 ENE 3.9 NNW 0.0
01:25 9.2 100.0 3.0 NNW 4.9 NNW 0.0
01:30 9.2 100.0 4.0 NNW 5.6 NW 0.0
01:35 9.1 100.0 4.0 NNW 6.4 NW 0.0
01:40 9.0 100.0 2.1 N 4.2 NNW 0.0
01:45 9.0 100.0 1.0 N 3.5 N 0.0
01:50 9.0 100.0 0.0 N 1.4 N 0.0
01:55 9.0 100.0 1.7 NNE 4.9 NNE 0.0
02:00 9.0 100.0 1.1 NE 3.2 NE 0.0
02:05 8.9 100.0 1.6 NE 3.9 NE 0.0
02:10 8.9 100.0 1.9 NE 5.3 NE 0.0
02:15 8.9 100.0 2.3 NE 4.6 NE 0.0
02:20 9.0 100.0 0.6 ENE 2.8 ENE 0.0
02:25 9.1 100.0 0.4 NE 2.8 NE 0.0
02:30 9.2 100.0 0.6 ENE 2.5 ENE 0.0
02:35 9.2 100.0 1.7 ENE 4.6 ENE 0.0
02:40 9.3 100.0 2.1 ENE 5.3 E 0.0
02:45 9.3 100.0 1.0 ENE 3.2 ENE 0.0
02:50 9.3 100.0 0.1 E 1.8 E 0.0
02:55 9.3 100.0 0.0 NNE 0.0 E 0.0
03:00 9.3 100.0 0.0 NNE 0.0 E 0.0
03:05 9.3 100.0 0.0 NNE 0.0 E 0.0
03:10 9.3 100.0 1.0 E 2.8 E 0.0
03:15 9.2 100.0 3.7 ESE 7.1 SSE 0.0
03:20 9.1 100.0 5.5 SSE 6.7 SSE 0.0
03:25 9.1 100.0 3.4 SSE 5.6 S 0.0
03:30 9.1 100.0 2.3 SSE 3.5 SSE 0.0
03:35 9.0 100.0 2.0 SSE 2.8 SSE 0.0
03:40 9.0 100.0 0.5 SSE 2.5 SSE 0.0
03:45 9.0 100.0 0.7 S 2.1 S 0.0
03:50 8.9 100.0 2.5 S 4.6 S 0.0
03:55 8.9 100.0 2.8 SSE 4.9 S 0.0
04:00 9.0 100.0 2.6 ENE 4.9 ENE 0.0
04:05 9.1 100.0 1.1 NE 3.9 NE 0.0
04:10 9.1 100.0 0.5 NE 2.1 NE 0.0
04:15 9.0 100.0 0.2 NE 2.5 NE 0.0
04:20 9.0 100.0 1.5 NNW 3.2 NNW 0.0
04:25 8.8 100.0 1.3 N 2.8 N 0.0
04:30 8.8 100.0 0.8 NNW 2.1 N 0.0
04:35 8.8 100.0 0.1 NNW 1.1 NNW 0.0
04:40 8.8 100.0 0.0 NNE 0.0 NNW 0.0
04:45 8.8 100.0 0.0 NNE 0.0 NNW 0.0
04:50 8.8 100.0 2.5 SSW 5.3 SSW 0.0
04:55 8.8 100.0 3.7 S 6.4 SSW 0.0
05:00 8.7 100.0 4.4 SSW 6.7 SSW 0.0
05:05 8.6 100.0 3.8 SSW 6.4 SSW 0.0
05:10 8.5 100.0 3.6 SSW 6.0 SW 0.0
05:15 8.5 100.0 3.9 SSW 7.4 S 0.1
05:20 8.4 100.0 4.3 SSW 8.8 SSW 0.0
05:25 8.3 100.0 5.6 SSW 7.8 SW 0.0
05:30 8.3 100.0 4.3 SSW 7.1 SSW 0.0
05:35 8.3 100.0 5.4 SSW 7.4 SSW 0.0
05:40 8.2 100.0 6.1 SSW 8.8 SW 0.0
05:45 8.1 100.0 5.5 SW 8.1 SW 0.0
05:50 8.2 100.0 5.1 SW 7.1 SW 0.0
05:55 8.3 100.0 5.0 SW 7.1 SSW 0.0
06:00 8.3 100.0 4.8 SW 7.8 SSW 0.0
06:05 8.4 100.0 5.9 SSW 9.2 SSW 0.0
06:10 8.3 100.0 2.9 SSW 6.4 SSW 0.0
06:15 8.3 100.0 2.0 S 4.6 S 0.0
06:20 8.4 100.0 1.9 SSW 5.3 SW 0.0
06:25 8.6 100.0 2.7 WSW 5.3 WSW 0.0
06:30 8.8 100.0 2.1 WSW 3.9 WSW 0.0
06:35 8.8 100.0 3.1 WSW 6.0 WSW 0.0
06:40 8.8 100.0 4.6 SW 8.8 S 0.0
06:45 9.0 100.0 4.2 SSW 7.8 SSW 0.0
06:50 9.0 100.0 5.0 SW 7.8 SW 0.0
06:55 9.1 100.0 3.1 WSW 4.9 W 0.0
07:00 9.3 100.0 1.8 SW 3.5 SW 0.0
07:05 9.4 100.0 2.9 WSW 4.9 W 0.0
07:10 9.5 100.0 2.3 WSW 4.6 WSW 0.0
07:15 9.6 100.0 0.8 SW 4.6 S 0.0
07:20 9.8 100.0 0.3 SSW 3.9 S 0.0
07:25 10.1 100.0 1.1 WNW 3.2 NW 0.0
07:30 10.0 100.0 0.9 NW 2.8 NW 0.0
07:35 10.0 100.0 0.9 NW 2.8 NW 0.0
07:40 10.1 100.0 0.5 NW 2.5 NW 0.0
07:45 10.2 100.0 1.2 N 4.6 NNW 0.0
07:50 10.5 100.0 1.3 NNE 4.2 NNE 0.0
07:55 10.8 100.0 2.8 NNW 5.6 NNW 0.0
08:00 11.0 100.0 2.7 NE 7.1 NE 0.0
Máxima 11.0 100.0 6.1 SSW 9.2 SSW 0.1
Mínima 8.1 100.0
Total 0.2